Tracking 28792 objects as of 25-Apr-2024
HD Live streaming from Space Station
objects crossing your sky now

METEOR M2-4

Track METEOR M2-4 now!
10-day predictions
METEOR M2-4 is classified as:


NORAD ID: 59051
Int'l Code: 2024-039A
Perigee: 820.8 km
Apogee: 829.3 km
Inclination: 98.6 °
Period: 101.3 minutes
Semi major axis: 7196 km
RCS: Unknown
Launch date: February 29, 2024
Source: Commonwealth of Independent States (former USSR) (CIS)
Launch site: VOSTOCHNY COSMODROME (VOSTO)

Uplink (MHz):
Downlink (MHz): 137.100/137.900
Beacon (MHz):
Mode: 72K LRPT HRPT
Call sign:
Status:

Your satellite tracking list
Your tracking list is empty




NASA's NSSDC Master Catalog

Two Line Element Set (TLE):
1 59051U 24039A   24116.15950777  .00000191  00000-0  10553-3 0  9991
2 59051  98.5936  79.3715 0005909 281.5074  78.5441 14.22215737  7958
Source of the keplerian elements: AFSPC